FW9423 Weather Reports


time (UTC)temp
C
wind
direction
speed
KPH
gust
KPH
rain 1hr
cm
rain 24hr
cm
rain mn
cm
humidity
%
barometer
mb
20260504224556 10 360 3.2 8.0 0.00 0.00 0.00 82 1027.0
20260504224042 10 360 1.6 6.4 0.00 0.00 0.00 82 1027.0
20260504223542 10 360 1.6 6.4 0.00 0.00 0.00 82 1027.0
20260504223058 10 360 1.6 6.4 0.00 0.00 0.00 82 1027.0
20260504222542 10 360 3.2 4.8 0.00 0.00 0.00 82 1026.9
20260504222041 10 360 1.6 4.8 0.00 0.00 0.00 82 1026.8
20260504221549 10 360 0.0 0.0 0.00 0.00 0.00 82 1026.9
20260504221041 10 0 0.0 0.0 0.00 0.00 0.00 82 1026.8
20260504220541 10 0 0.0 0.0 0.00 0.00 0.00 82 1026.7
20260504220058 10 0 0.0 1.6 0.00 0.00 0.00 82 1026.6
20260504215543 10 0 0.0 1.6 0.00 0.00 0.00 81 1026.7
20260504215044 10 0 0.0 4.8 0.00 0.00 0.00 81 1026.7
20260504214551 10 0 0.0 4.8 0.00 0.00 0.00 81 1026.5
20260504214040 10 0 1.6 4.8 0.00 0.00 0.00 81 1026.5
20260504213543 10 360 1.6 4.8 0.00 0.00 0.00 80 1026.4
20260504213104 10 360 3.2 6.4 0.00 0.00 0.00 80 1026.3
20260504212544 10 360 1.6 6.4 0.00 0.00 0.00 80 1026.4
20260504212045 10 360 1.6 8.0 0.00 0.00 0.00 80 1026.4
20260504211600 11 360 3.2 8.0 0.00 0.00 0.00 80 1026.4
20260504211044 11 360 4.8 8.0 0.00 0.00 0.00 79 1026.3
20260504210544 11 360 1.6 8.0 0.00 0.00 0.00 79 1026.3
20260504210125 11 360 3.2 8.0 0.00 0.00 0.00 79 1026.4
20260504205542 11 360 3.2 8.0 0.00 0.00 0.00 79 1026.3
20260504205042 11 360 1.6 6.4 0.00 0.00 0.00 79 1026.2
20260504204602 11 0 0.0 3.2 0.00 0.00 0.00 79 1026.2
20260504204043 11 0 0.0 3.2 0.00 0.00 0.00 79 1026.3
20260504203545 11 0 0.0 3.2 0.00 0.00 0.00 79 1026.2
20260504203058 11 0 0.0 0.0 0.00 0.00 0.00 78 1026.2
20260504202540 11 0 0.0 0.0 0.00 0.00 0.00 78 1026.2
20260504202045 11 0 0.0 4.8 0.00 0.00 0.00 78 1026.2
20260504201557 11 0 0.0 6.4 0.00 0.00 0.00 78 1026.0
20260504201039 11 360 3.2 6.4 0.00 0.00 0.00 77 1025.9
20260504200539 12 360 3.2 8.0 0.00 0.00 0.00 77 1026.0
20260504200124 12 360 3.2 8.0 0.00 0.00 0.00 77 1025.9
20260504195541 12 360 3.2 6.4 0.00 0.00 0.00 77 1026.0
20260504195041 12 360 3.2 6.4 0.00 0.00 0.00 77 1025.8
20260504194556 12 360 3.2 6.4 0.00 0.00 0.00 77 1025.9
20260504194041 12 360 3.2 6.4 0.00 0.00 0.00 77 1025.9
20260504193541 12 360 3.2 6.4 0.00 0.00 0.00 77 1025.8
20260504193103 11 0 1.6 6.4 0.00 0.00 0.00 77 1025.8
20260504192540 11 360 0.0 6.4 0.00 0.00 0.00 76 1025.8
20260504192045 11 0 0.0 0.0 0.00 0.00 0.00 76 1025.8
20260504191624 12 0 0.0 4.8 0.00 0.00 0.00 76 1025.8
20260504191041 12 0 0.0 4.8 0.00 0.00 0.00 75 1025.8
20260504190543 12 0 1.6 4.8 0.00 0.00 0.00 75 1025.8
20260504190059 12 360 1.6 4.8 0.00 0.00 0.00 75 1025.8
20260504185540 12 360 1.6 4.8 0.00 0.00 0.00 74 1025.8
20260504185039 12 360 1.6 4.8 0.00 0.00 0.00 73 1025.7
20260504184550 12 0 1.6 4.8 0.00 0.00 0.00 73 1025.7
20260504184042 12 360 1.6 6.4 0.00 0.00 0.00 73 1025.8
20260504183541 12 360 3.2 6.4 0.00 0.00 0.00 73 1025.7
20260504183058 12 360 3.2 6.4 0.00 0.00 0.00 72 1025.7
20260504182539 12 360 3.2 4.8 0.00 0.00 0.00 72 1025.6
20260504182041 12 360 3.2 4.8 0.00 0.00 0.00 72 1025.6
20260504181552 12 360 1.6 4.8 0.00 0.00 0.00 71 1025.7
20260504181041 12 360 1.6 3.2 0.00 0.00 0.00 70 1025.7
20260504180541 12 360 1.6 3.2 0.00 0.00 0.00 70 1025.8
20260504180122 13 360 0.0 4.8 0.00 0.00 0.00 70 1025.7
20260504175544 13 0 1.6 6.4 0.00 0.00 0.00 69 1025.8
20260504175041 13 360 3.2 6.4 0.00 0.00 0.00 69 1025.6
20260504174552 13 360 1.6 4.8 0.00 0.00 0.00 69 1025.6
20260504174043 13 360 1.6 4.8 0.00 0.00 0.00 69 1025.6
20260504173540 13 360 1.6 4.8 0.00 0.00 0.00 68 1025.6
20260504173054 13 360 0.0 4.8 0.00 0.00 0.00 68 1025.6
20260504172540 13 0 0.0 4.8 0.00 0.00 0.00 67 1025.7
20260504172040 13 360 0.0 3.2 0.00 0.00 0.00 67 1025.7
20260504171554 14 0 0.0 0.0 0.00 0.00 0.00 67 1025.8
20260504171041 14 0 0.0 0.0 0.00 0.00 0.00 67 1025.6
20260504170543 14 0 0.0 0.0 0.00 0.00 0.00 66 1025.6
20260504151042 15 360 0.0 4.8 0.00 0.00 0.00 62 1025.9
20260504150545 16 0 0.0 3.2 0.00 0.00 0.00 61 1025.9
20260504141042 16 360 0.0 4.8 0.00 0.00 0.00 58 1026.0
20260504140542 16 360 1.6 4.8 0.00 0.00 0.00 58 1026.1
20260504130543 16 0 0.0 3.2 0.00 0.00 0.00 57 1026.4
20260504110544 17 360 6.4 16.1 0.00 0.00 0.00 52 1025.6
20260504100542 17 360 4.8 14.5 0.00 0.00 0.00 51 1025.4
20260504100109 17 360 1.6 9.7 0.00 0.00 0.00 51 1025.4
20260504081552 18 360 3.2 9.7 0.00 0.00 0.00 49 1024.7
20260504081042 18 360 3.2 9.7 0.00 0.00 0.00 49 1024.7
20260504080542 18 360 3.2 16.1 0.00 0.00 0.00 49 1024.7
20260504050542 18 360 6.4 16.1 0.00 0.00 0.00 49 1024.4
20260504045548 18 360 3.2 14.5 0.00 0.00 0.00 50 1024.5
20260504045041 18 360 6.4 17.7 0.00 0.00 0.00 51 1024.5
20260504044547 18 360 4.8 17.7 0.00 0.00 0.00 50 1024.6
20260504044043 18 360 4.8 16.1 0.00 0.00 0.00 50 1024.6
20260504044035 18 360 4.8 14.5 0.00 0.00 0.00 50 1024.5
20260504043101 18 360 4.8 16.1 0.00 0.00 0.00 50 1024.5
20260504042543 18 360 8.0 16.1 0.00 0.00 0.00 49 1024.6
20260504042044 18 360 4.8 14.5 0.00 0.00 0.00 49 1024.6
20260504041556 18 360 4.8 14.5 0.00 0.00 0.00 50 1024.6
20260504041042 18 360 4.8 14.5 0.00 0.00 0.00 49 1024.7
20260504040542 18 360 4.8 14.5 0.00 0.00 0.00 50 1024.7
20260504035542 18 360 4.8 12.9 0.00 0.00 0.00 50 1025.0
20260504035046 18 360 3.2 12.9 0.00 0.00 0.00 51 1025.0
20260504034558 18 360 4.8 16.1 0.00 0.00 0.00 52 1025.2
20260504034041 17 360 4.8 16.1 0.00 0.00 0.00 53 1025.2
20260504033543 17 360 6.4 19.3 0.00 0.00 0.00 54 1025.3
20260504033053 17 360 4.8 19.3 0.00 0.00 0.00 55 1025.4
20260504032542 17 360 9.7 16.1 0.00 0.00 0.00 54 1025.5
20260504032045 17 360 6.4 16.1 0.00 0.00 0.00 54 1025.5
20260504031557 17 360 8.0 16.1 0.00 0.00 0.00 55 1025.5
20260504031043 17 360 4.8 19.3 0.00 0.00 0.00 56 1025.6
20260504030541 17 360 9.7 19.3 0.00 0.00 0.00 56 1025.7
20260504030054 17 360 4.8 17.7 0.00 0.00 0.00 57 1025.8
20260504025541 17 360 3.2 17.7 0.00 0.00 0.00 57 1025.8
20260504025044 17 360 8.0 16.1 0.00 0.00 0.00 57 1025.9
20260504024550 17 360 4.8 17.7 0.00 0.00 0.00 57 1025.9
20260504024042 17 360 4.8 17.7 0.00 0.00 0.00 57 1025.9
20260504023543 17 360 4.8 12.9 0.00 0.00 0.00 59 1026.0
20260504023052 16 360 4.8 12.9 0.00 0.00 0.00 60 1026.1
20260504022542 17 360 4.8 14.5 0.00 0.00 0.00 63 1026.2
20260504022045 17 360 4.8 14.5 0.00 0.00 0.00 61 1026.2
20260504021552 17 360 6.4 16.1 0.00 0.00 0.00 62 1026.2
20260504021041 17 360 6.4 16.1 0.00 0.00 0.00 63 1026.3
20260504020541 17 360 4.8 14.5 0.00 0.00 0.00 64 1026.1
20260504015543 17 360 4.8 9.7 0.00 0.00 0.00 65 1026.4
20260504015042 17 360 3.2 12.9 0.00 0.00 0.00 66 1026.3
20260504014552 17 360 3.2 14.5 0.00 0.00 0.00 66 1026.4
20260504014042 17 360 6.4 14.5 0.00 0.00 0.00 65 1026.4
20260504013542 17 360 4.8 14.5 0.00 0.00 0.00 66 1026.5
20260504013049 17 360 4.8 19.3 0.00 0.00 0.00 67 1026.4
20260504012545 16 360 6.4 19.3 0.00 0.00 0.00 68 1026.4
20260504012041 16 360 4.8 14.5 0.00 0.00 0.00 69 1026.7
20260504011550 16 360 4.8 12.9 0.00 0.00 0.00 70 1026.7
20260504011042 15 360 4.8 12.9 0.00 0.00 0.00 71 1026.8
20260504010542 15 360 4.8 16.1 0.00 0.00 0.00 71 1026.8
20260504010050 15 360 6.4 16.1 0.00 0.00 0.00 71 1026.9
20260504005542 15 360 4.8 9.7 0.00 0.00 0.00 72 1026.8
20260504005042 15 360 4.8 8.0 0.00 0.00 0.00 72 1026.9
20260504004553 15 360 3.2 8.0 0.00 0.00 0.00 74 1026.7
20260504004042 15 360 3.2 8.0 0.00 0.00 0.00 75 1026.7
20260504003541 15 360 3.2 8.0 0.00 0.00 0.00 76 1026.6
20260504003050 14 360 3.2 8.0 0.00 0.00 0.00 77 1026.6
20260504002543 13 360 3.2 8.0 0.00 0.00 0.00 78 1026.4
20260504002042 13 360 1.6 8.0 0.00 0.00 0.00 79 1026.4
20260504001548 13 360 1.6 8.0 0.00 0.00 0.00 79 1026.4
20260504001042 13 360 3.2 8.0 0.00 0.00 0.00 79 1026.3
20260504000544 13 360 1.6 8.0 0.00 0.00 0.00 79 1026.3
20260504000048 12 360 3.2 8.0 0.00 0.00 0.00 79 1026.2
20260503235543 12 360 3.2 8.0 0.00 0.00 0.00 79 1026.3
20260503235042 12 360 3.2 8.0 0.00 0.00 0.00 79 1026.1
20260503234551 12 360 3.2 12.9 0.00 0.00 0.00 79 1026.1
20260503234044 12 360 3.2 12.9 0.00 0.00 0.00 80 1026.0
20260503233545 12 360 3.2 12.9 0.00 0.00 0.00 80 1026.0
20260503233048 11 360 3.2 8.0 0.00 0.00 0.00 80 1025.8
20260503232541 11 360 3.2 6.4 0.00 0.00 0.00 80 1025.8
20260503232041 11 360 1.6 6.4 0.00 0.00 0.00 80 1025.8
20260503231547 11 360 3.2 6.4 0.00 0.00 0.00 80 1025.8
20260503231042 11 360 1.6 6.4 0.00 0.00 0.00 80 1025.8
20260503230542 10 360 1.6 6.4 0.00 0.00 0.00 80 1025.6
20260503225541 10 360 3.2 8.0 0.00 0.00 0.00 79 1025.5
20260503225041 10 360 3.2 9.7 0.00 0.00 0.00 80 1025.4